Weather History for Rome Ciampino, Italy

Change the Weather History Date:

Wednesday, March 20, 2013

  Actual Average Record
Temperature  
Mean Temperature 45 °F -  
Max Temperature 53 °F 63 °F 69 °F (2012)
Min Temperature 37 °F 44 °F 37 °F (1999)
Degree Days  
Heating Degree Days 20    
Moisture  
Dew Point 42 °F    
Average Humidity 82    
Maximum Humidity 94    
Minimum Humidity 54    
Precipitation  
Precipitation 0.00 in 0.09 in - ()
Sea Level Pressure  
Sea Level Pressure 29.70 in    
Wind  
Wind Speed 3 mph ()    
Max Wind Speed 14 mph    
Max Gust Speed -    
Visibility 6.0 miles    
Events Rain    
Averages and records for this station are not official NWS values.
T = Trace of Precipitation, MM = Missing Value Source: Averaged Metar Reports

Daily Weather History Graph

Daily Weather History Graph

Search for Another Location

Airport:

Trip Planner

Search our weather history database for the weather conditions in past years. The results will help you decide how hot, cold, wet, or windy it might be!

Date:

Astronomy

Mar. 20, 2013 Rise Set
Actual Time 6:13 AM CET 6:21 PM CET
Civil Twilight 5:45 AM CET 6:49 PM CET
Nautical Twilight 5:12 AM CET 7:22 PM CET
Astronomical Twilight 4:39 AM CET 7:55 PM CET
Moon 11:37 AM CET (3/20) 1:44 AM CET (3/20)
Length of Visible Light 13h 04m
Length of Day
12h 08m
First Quarter, 57% of the Moon is Illuminated
Mar 20
First Quarter
Mar 27
Full
Apr 3
Last Quarter
Apr 10
New
Apr 18
First Quarter

Hourly Weather History & Observations

Time (CET) Temp. Windchill Dew Point Humidity Pressure Visibility Wind Dir Wind Speed Gust Speed Precip Events Conditions
12:15 AM 44.6 °F 43.1 °F 41.0 °F 87% 29.77 in 6.2 mi East 3.5 mph - N/A   Partly Cloudy
12:45 AM 44.6 °F - 41.0 °F 87% 29.77 in 6.2 mi SSE 1.2 mph - N/A   Scattered Clouds
1:15 AM 42.8 °F - 39.2 °F 87% 29.77 in 6.2 mi East 1.2 mph - N/A   Scattered Clouds
1:45 AM 42.8 °F - 37.4 °F 81% 29.77 in 6.2 mi West 1.2 mph - N/A   Scattered Clouds
2:15 AM 42.8 °F - 39.2 °F 87% 29.77 in 6.2 mi SE 1.2 mph - N/A   Scattered Clouds
2:45 AM 42.8 °F - 37.4 °F 81% 29.77 in 6.2 mi South 2.3 mph - N/A   Scattered Clouds
3:15 AM 41.0 °F - 37.4 °F 87% 29.77 in 6.2 mi Calm Calm - N/A   Scattered Clouds
3:45 AM 39.2 °F - 37.4 °F 93% 29.74 in 6.2 mi NE 2.3 mph - N/A   Partly Cloudy
4:15 AM 39.2 °F - 35.6 °F 87% 29.74 in 6.2 mi Calm Calm - N/A   Partly Cloudy
4:45 AM 39.2 °F - 35.6 °F 87% 29.74 in 6.2 mi Calm Calm - N/A   Partly Cloudy
5:15 AM 39.2 °F - 35.6 °F 87% 29.74 in 6.2 mi Calm Calm - N/A   Partly Cloudy
5:45 AM 37.4 °F - 35.6 °F 93% 29.74 in 6.2 mi Calm Calm - N/A   Partly Cloudy
6:15 AM 39.2 °F - 35.6 °F 87% 29.71 in - SE 1.2 mph - N/A   Clear
6:45 AM 39.2 °F - 35.6 °F 87% 29.71 in - South 1.2 mph - N/A   Clear
7:15 AM 41.0 °F - 35.6 °F 81% 29.74 in 6.2 mi SSE 2.3 mph - N/A   Scattered Clouds
7:45 AM 42.8 °F - 39.2 °F 87% 29.74 in 6.2 mi ENE 1.2 mph - N/A   Scattered Clouds
8:15 AM 46.4 °F - 41.0 °F 81% 29.74 in 6.2 mi North 1.2 mph - N/A   Partly Cloudy
8:45 AM 48.2 °F - 41.0 °F 76% 29.71 in 6.2 mi North 1.2 mph - N/A   Scattered Clouds
9:15 AM 48.2 °F - 41.0 °F 76% 29.71 in 6.2 mi WNW 2.3 mph - N/A   Scattered Clouds
9:45 AM 50.0 °F - 42.8 °F 76% 29.71 in 6.2 mi WNW 2.3 mph - N/A   Scattered Clouds
10:15 AM 53.6 °F - 41.0 °F 62% 29.71 in 6.2 mi SE 9.2 mph - N/A   Scattered Clouds
10:45 AM 53.6 °F - 39.2 °F 58% 29.71 in 6.2 mi SE 5.8 mph - N/A   Scattered Clouds
11:15 AM 53.6 °F - 37.4 °F 54% 29.71 in 6.2 mi East 2.3 mph - N/A   Scattered Clouds
11:45 AM 53.6 °F - 39.2 °F 58% 29.71 in 6.2 mi Calm Calm - N/A   Scattered Clouds
12:15 PM 53.6 °F - 37.4 °F 54% 29.71 in 6.2 mi South 3.5 mph - N/A   Scattered Clouds
12:45 PM 53.6 °F - 39.2 °F 58% 29.71 in 6.2 mi South 9.2 mph - N/A   Mostly Cloudy
1:15 PM 53.6 °F - 39.2 °F 58% 29.68 in 6.2 mi South 10.4 mph - N/A   Mostly Cloudy
1:45 PM 53.6 °F - 39.2 °F 58% 29.68 in 6.2 mi South 8.1 mph - N/A Rain Light Rain
2:15 PM 51.8 °F - 44.6 °F 76% 29.71 in 6.2 mi South 3.5 mph - N/A Rain Light Rain
2:45 PM 50.0 °F - 46.4 °F 87% 29.71 in 5.0 mi SE 5.8 mph - N/A   Mostly Cloudy
3:15 PM 48.2 °F - 42.8 °F 82% 29.68 in 5.0 mi SE 8.1 mph - N/A Rain Rain
3:45 PM 48.2 °F - 42.8 °F 82% 29.68 in 5.0 mi SE 4.6 mph - N/A Rain Light Rain
4:15 PM 46.4 °F 41.9 °F 44.6 °F 93% 29.68 in 5.0 mi SE 9.2 mph - N/A Rain Rain
4:45 PM 48.2 °F - 46.4 °F 93% 29.65 in 5.0 mi East 5.8 mph - N/A Rain Rain
5:15 PM 48.2 °F - 44.6 °F 87% 29.65 in 4.3 mi Calm Calm - N/A Rain Rain
5:45 PM 48.2 °F - 46.4 °F 93% 29.65 in 4.3 mi East 5.8 mph - N/A Rain Rain
6:15 PM 48.2 °F - 46.4 °F 93% 29.65 in 5.6 mi WNW 3.5 mph - N/A Rain Light Rain
6:45 PM 48.2 °F - 46.4 °F 93% 29.65 in 5.6 mi Calm Calm - N/A Rain Light Rain
7:15 PM 50.0 °F - 46.4 °F 87% 29.65 in 6.2 mi East 4.6 mph - N/A   Scattered Clouds
7:45 PM 50.0 °F - 46.4 °F 87% 29.65 in 6.2 mi SSE 5.8 mph - N/A Rain Light Rain
8:15 PM 50.0 °F - 48.2 °F 94% 29.65 in 6.2 mi Calm Calm - N/A Rain Light Rain
8:45 PM 50.0 °F - 48.2 °F 94% 29.65 in 6.2 mi SSE 6.9 mph - N/A Rain Light Rain
9:15 PM 50.0 °F - 48.2 °F 94% 29.65 in 6.2 mi SE 5.8 mph - N/A Rain Light Rain
9:45 PM 51.8 °F - 48.2 °F 88% 29.62 in 6.2 mi SSE 9.2 mph - N/A Rain Light Rain
10:15 PM 51.8 °F - 48.2 °F 88% 29.62 in 6.2 mi SSE 13.8 mph - N/A Rain Light Rain
10:45 PM 50.0 °F - 48.2 °F 94% 29.62 in 6.2 mi South 12.7 mph - N/A Rain Light Rain
11:15 PM 50.0 °F - 48.2 °F 94% 29.62 in 6.2 mi South 11.5 mph - N/A   Scattered Clouds
11:45 PM 50.0 °F - 48.2 °F 94% 29.62 in 6.2 mi SSE 12.7 mph - N/A   Scattered Clouds